FW8749 Weather Reports


time (UTC)temp
F
wind
direction
speed
knots
gust
knots
rain 1hr
in
rain 24hr
in
rain mn
in
humidity
%
barometer
mb
20260507070126 0 60 4.3 6.1 0.00 0.13 0.13 1007.9
20260507065622 0 9 3.5 4.3 0.00 0.13 0.13 1007.8
20260507065119 0 54 2.6 4.3 0.00 0.13 0.13 1007.3
20260507064617 0 52 2.6 2.6 0.00 0.13 0.13 1007.6
20260507064115 0 21 5.2 7.0 0.00 0.13 0.13 1007.6
20260507063613 0 0 2.6 4.3 0.00 0.13 0.13 1007.5
20260507063110 0 37 1.7 1.7 0.00 0.13 0.13 1007.4
20260507062606 0 328 5.2 6.1 0.07 0.13 0.13 1007.6
20260507062104 0 321 2.6 4.3 0.07 0.13 0.13 1007.6
20260507061601 0 356 6.1 7.8 0.05 0.12 0.12 1007.3
20260507061059 0 20 2.6 2.6 0.12 0.12 0.12 1007.6
20260507060557 0 5 0.9 1.7 0.12 0.11 0.11 1007.5
20260507060053 0 234 0.0 0.0 0.12 0.10 0.10 1007.5
20260507055548 0 318 0.0 0.0 0.07 0.09 0.09 1007.6
20260507055045 0 242 0.0 0.0 0.00 0.08 0.08 1008.2
20260507054541 0 338 0.9 1.7 0.00 0.08 0.08 1008.4
20260507054038 0 296 0.9 1.7 0.00 0.08 0.08 1008.0
20260507053536 0 47 2.6 5.2 0.07 0.08 0.08 1008.4
20260507053034 0 351 2.6 2.6 0.12 0.08 0.08 1008.6
20260507052532 0 38 3.5 5.2 0.28 0.07 0.07 1008.4
20260507052028 0 22 6.1 7.0 0.35 0.06 0.06 1007.8
20260507051526 0 342 1.7 1.7 0.12 0.02 0.02 1008.7
20260507051023 0 344 2.6 4.3 0.00 0.00 0.00 1008.0
20260507050519 0 41 0.9 0.9 0.00 0.00 0.00 1008.1
20260507050016 0 46 2.6 4.3 0.00 0.00 0.00 1007.8
20260507045512 0 18 4.3 5.2 0.00 0.00 0.00 1007.7
20260507045010 0 22 0.9 1.7 0.00 0.00 0.00 1007.4
20260507044506 0 318 3.5 4.3 0.00 0.00 0.00 1007.4
20260507044003 0 314 0.9 0.9 0.00 0.00 0.00 1007.6
20260507043459 0 323 2.6 2.6 0.00 0.00 0.00 1007.3
20260507042955 0 7 3.5 4.3 0.00 0.00 0.00 1007.0
20260507042452 0 69 0.9 1.7 0.00 0.00 0.00 1007.2
20260507041948 0 5 2.6 4.3 0.00 0.00 0.00 1007.3
20260507041445 0 219 0.0 0.9 0.00 0.00 0.00 1007.2
20260507040942 0 39 0.9 0.9 0.00 0.00 0.00 1007.2
20260507040438 0 345 0.9 1.7 0.00 0.00 0.00 1007.2
20260507035934 0 14 0.9 0.9 0.00 0.06 0.06 1007.5
20260507035430 0 25 1.7 1.7 0.00 0.06 0.06 1007.5
20260507034927 0 354 1.7 1.7 0.00 0.06 0.06 1007.5
20260507034424 0 1 0.0 0.0 0.00 0.06 0.06 1007.2
20260507033922 0 268 0.0 0.0 0.00 0.06 0.06 1007.2
20260507033420 0 242 0.0 0.0 0.00 0.06 0.06 1006.8
20260507032916 0 238 0.0 0.0 0.00 0.06 0.06 1006.9
20260507032414 0 232 0.0 0.0 0.00 0.06 0.06 1007.0
20260507031909 0 233 0.0 0.0 0.00 0.06 0.06 1007.2
20260507031406 0 234 0.0 0.0 0.00 0.06 0.06 1007.1
20260507030903 0 247 0.0 0.0 0.00 0.06 0.06 1007.2
20260507030400 0 245 0.0 0.0 0.00 0.06 0.06 1007.1
20260507025857 0 250 0.0 0.0 0.00 0.06 0.06 1006.8
20260507025355 0 235 0.0 0.0 0.00 0.06 0.06 1006.7
20260507024852 0 233 0.0 0.0 0.00 0.06 0.06 1006.8
20260507024349 0 234 0.0 0.0 0.00 0.06 0.06 1007.1
20260507023845 0 230 0.0 0.0 0.00 0.06 0.06 1006.9
20260507023342 0 226 0.0 0.0 0.00 0.06 0.06 1006.8
20260507022839 0 229 0.0 0.0 0.00 0.06 0.06 1006.8
20260507022336 0 230 0.0 0.0 0.00 0.06 0.06 1007.0
20260507021831 0 232 0.0 0.0 0.00 0.06 0.06 1006.8
20260507021327 0 233 0.0 0.0 0.00 0.06 0.06 1006.7
20260507020826 0 223 0.0 0.0 0.00 0.06 0.06 1006.7
20260507020322 0 227 0.0 0.0 0.00 0.06 0.06 1006.8
20260507015819 0 224 0.0 0.0 0.00 0.06 0.06 1007.0
20260507015317 0 225 0.0 0.0 0.00 0.06 0.06 1007.3
20260507014813 0 231 0.0 0.0 0.00 0.06 0.06 1007.6
20260507014310 0 234 0.0 0.0 0.00 0.06 0.06 1007.5
20260507013806 0 236 0.0 0.0 0.00 0.06 0.06 1007.6
20260507013304 0 229 0.0 0.0 0.00 0.06 0.06 1007.6
20260507012801 0 219 0.0 0.0 0.00 0.06 0.06 1007.5
20260507012256 0 236 0.0 0.0 0.00 0.06 0.06 1007.5
20260507011754 0 245 0.0 0.0 0.00 0.06 0.06 1007.4
20260507011251 0 233 0.0 0.0 0.00 0.06 0.06 1007.2
20260507010750 0 224 0.0 0.0 0.00 0.06 0.06 1007.4
20260507010246 0 242 0.0 0.0 0.00 0.06 0.06 1007.0
20260507005744 0 222 0.0 0.0 0.00 0.06 0.06 1007.1
20260507005240 0 229 0.0 0.0 0.00 0.06 0.06 1007.1
20260507004737 0 228 0.0 0.0 0.00 0.06 0.06 1007.2
20260507004235 0 240 0.0 0.0 0.00 0.06 0.06 1007.3
20260507003730 0 233 0.0 0.0 0.00 0.06 0.06 1007.0
20260507003226 0 237 0.0 0.0 0.00 0.06 0.06 1007.1
20260507002722 0 227 0.0 0.0 0.00 0.06 0.06 1006.9
20260507002218 0 229 0.0 0.0 0.00 0.06 0.06 1007.1
20260507001715 0 238 0.0 0.0 0.00 0.06 0.06 1007.2
20260507001213 0 231 0.0 0.0 0.00 0.06 0.06 1007.3
20260507000708 0 217 0.0 0.0 0.00 0.06 0.06 1006.9
20260507000205 0 233 0.0 0.0 0.00 0.06 0.06 1007.0
20260506235702 0 233 0.0 0.0 0.00 0.06 0.06 1006.8
20260506235157 0 233 0.0 0.0 0.00 0.06 0.06 1006.8
20260506234654 0 217 0.0 0.0 0.00 0.06 0.06 1006.8
20260506234151 0 233 0.0 0.0 0.00 0.06 0.06 1006.4
20260506233648 0 225 0.0 0.0 0.00 0.06 0.06 1006.3
20260506233145 0 212 0.0 0.0 0.00 0.06 0.06 1006.4
20260506232641 0 204 0.0 0.0 0.00 0.06 0.06 1006.8
20260506232137 0 231 0.0 0.0 0.00 0.06 0.06 1006.8
20260506231634 0 231 0.0 0.0 0.00 0.06 0.06 1006.6
20260506231133 0 212 0.0 0.0 0.00 0.06 0.06 1006.7
20260506230629 0 221 0.0 0.0 0.00 0.06 0.06 1006.4
20260506230126 0 162 0.0 0.0 0.00 0.06 0.06 1006.6
20260506225623 0 235 0.0 0.0 0.00 0.06 0.06 1006.6
20260506225119 0 223 0.0 0.0 0.00 0.06 0.06 1006.8
20260506224616 0 206 0.0 0.9 0.00 0.06 0.06 1006.6
20260506224112 0 233 0.0 0.0 0.00 0.06 0.06 1006.6
20260506223608 0 161 2.6 2.6 0.00 0.06 0.06 1006.7
20260506223105 0 239 0.9 1.7 0.00 0.06 0.06 1006.7
20260506222602 0 228 0.9 1.7 0.00 0.06 0.06 1006.7
20260506222058 0 250 0.9 1.7 0.00 0.06 0.06 1006.8
20260506221556 0 182 0.9 1.7 0.00 0.06 0.06 1006.7
20260506221054 0 169 2.6 4.3 0.00 0.06 0.06 1006.6
20260506220549 0 192 0.9 1.7 0.00 0.06 0.06 1006.8
20260506220045 0 184 0.9 0.9 0.00 0.06 0.06 1006.5
20260506215542 0 287 3.5 5.2 0.00 0.06 0.06 1006.6
20260506215038 0 200 0.9 1.7 0.00 0.06 0.06 1006.6
20260506214535 0 221 0.0 0.9 0.00 0.06 0.06 1006.6
20260506214032 0 203 1.7 2.6 0.00 0.06 0.06 1006.6
20260506213530 0 175 1.7 1.7 0.00 0.06 0.06 1006.5
20260506213027 0 175 0.0 0.0 0.00 0.06 0.06 1006.5
20260506212524 0 208 0.0 0.9 0.00 0.06 0.06 1006.4
20260506212019 0 178 0.9 1.7 0.00 0.06 0.06 1006.4
20260506211515 0 221 1.7 2.6 0.00 0.06 0.06 1006.2
20260506211013 0 226 0.9 1.7 0.00 0.06 0.06 1006.3
20260506210509 0 200 4.3 5.2 0.00 0.06 0.06 1006.2
20260506210006 0 220 0.9 0.9 0.00 0.06 0.06 1006.2
20260506205502 0 202 1.7 2.6 0.00 0.06 0.06 1006.1
20260506204958 0 216 1.7 2.6 0.00 0.06 0.06 1006.3
20260506204456 0 126 1.7 1.7 0.00 0.06 0.06 1006.1
20260506203953 0 231 0.0 0.0 0.00 0.06 0.06 1006.1
20260506203450 0 104 0.9 1.7 0.00 0.06 0.06 1006.2
20260506202947 0 200 1.7 2.6 0.00 0.06 0.06 1006.2
20260506202444 0 343 0.9 1.7 0.00 0.06 0.06 1006.1
20260506201940 0 57 1.7 2.6 0.00 0.06 0.06 1006.0
20260506201438 0 51 1.7 2.6 0.00 0.06 0.06 1006.0
20260506200934 0 241 0.0 0.0 0.00 0.06 0.06 1005.7
20260506200431 0 57 1.7 1.7 0.00 0.06 0.06 1006.0
20260506195927 0 257 1.7 2.6 0.00 0.06 0.06 1005.9
20260506195424 0 217 1.7 2.6 0.00 0.06 0.06 1006.0
20260506194921 0 74 0.9 1.7 0.00 0.06 0.06 1006.2
20260506194418 0 163 4.3 6.1 0.00 0.06 0.06 1006.4
20260506193915 0 249 0.9 2.6 0.00 0.06 0.06 1006.3
20260506193412 0 224 1.7 1.7 0.00 0.06 0.06 1006.4
20260506192908 0 283 2.6 2.6 0.00 0.06 0.06 1006.3
20260506192406 0 214 0.0 0.0 0.00 0.06 0.06 1006.1
20260506191902 0 190 0.9 2.6 0.00 0.06 0.06 1006.3
20260506191359 0 187 3.5 5.2 0.00 0.06 0.06 1006.4
20260506190856 0 187 0.9 1.7 0.00 0.06 0.06 1006.4
20260506190352 0 280 2.6 4.3 0.00 0.06 0.06 1006.5
20260506185849 0 165 3.5 4.3 0.00 0.06 0.06 1006.5
20260506185346 0 329 2.6 4.3 0.00 0.06 0.06 1006.6
20260506184843 0 211 1.7 2.6 0.00 0.06 0.06 1006.7
20260506184340 0 177 1.7 2.6 0.00 0.06 0.06 1006.9
20260506183838 0 241 1.7 1.7 0.00 0.06 0.06 1006.8
20260506183333 0 230 1.7 2.6 0.00 0.06 0.06 1006.8
20260506182830 0 198 4.3 6.1 0.00 0.06 0.06 1006.7
20260506182327 0 207 2.6 4.3 0.00 0.06 0.06 1007.1
20260506181825 0 204 4.3 6.1 0.00 0.06 0.06 1006.9
20260506181323 0 191 1.7 2.6 0.00 0.06 0.06 1006.9
20260506180819 0 157 4.3 6.1 0.00 0.06 0.06 1006.9
20260506180315 0 216 4.3 6.1 0.00 0.06 0.06 1007.2
20260506175812 0 297 2.6 2.6 0.00 0.06 0.06 1007.4
20260506175309 0 272 3.5 5.2 0.00 0.06 0.06 1007.4
20260506174806 0 176 3.5 4.3 0.00 0.06 0.06 1007.2
20260506174303 0 198 3.5 5.2 0.00 0.06 0.06 1007.4
20260506173801 0 208 0.9 2.6 0.00 0.06 0.06 1007.6
20260506173257 0 168 7.0 11.3 0.00 0.06 0.06 1007.3
20260506172754 0 180 0.9 0.9 0.00 0.06 0.06 1007.2
20260506172251 0 227 2.6 4.3 0.00 0.06 0.06 1006.8
20260506171749 0 338 3.5 6.1 0.00 0.06 0.06 1007.4
20260506171245 0 190 3.5 5.2 0.00 0.06 0.06 1007.1
20260506170743 0 343 1.7 2.6 0.00 0.06 0.06 1007.2
20260506170239 0 204 3.5 5.2 0.00 0.06 0.06 1007.4
20260506165738 0 242 2.6 4.3 0.00 0.06 0.06 1007.3
20260506165235 0 188 4.3 6.1 0.00 0.06 0.06 1007.0
20260506164732 0 230 1.7 1.7 0.00 0.06 0.06 1007.5
20260506164229 0 212 1.7 2.6 0.00 0.06 0.06 1007.4
20260506163726 0 173 2.6 2.6 0.00 0.06 0.06 1007.5
20260506163220 0 227 0.9 0.9 0.00 0.06 0.06 1007.7
20260506162717 0 213 0.9 1.7 0.00 0.06 0.06 1007.9
20260506162215 0 202 1.7 1.7 0.00 0.06 0.06 1007.9
20260506161712 0 145 0.0 0.9 0.00 0.06 0.06 1008.0
20260506161209 0 170 2.6 5.2 0.00 0.06 0.06 1007.9
20260506160706 0 218 0.0 0.0 0.07 0.06 0.06 1008.0
20260506160202 0 228 0.0 0.9 0.07 0.06 0.06 1007.7
20260506155701 0 239 0.0 0.0 0.00 0.05 0.05 1008.2
20260506155158 0 223 0.9 1.7 0.05 0.05 0.05 1008.2
20260506153300 0 190 2.6 4.3 0.05 0.03 0.03 1008.8
20260506152757 0 221 1.7 1.7 0.12 0.03 0.03 1009.0
20260506152254 0 211 2.6 2.6 0.07 0.02 0.02 1009.1
20260506151753 0 191 0.9 0.9 0.00 0.01 0.01 1009.0
20260506151249 0 218 1.7 1.7 0.07 0.01 0.01 1008.7
20260506150746 0 211 1.7 1.7 0.07 0.01 0.01 1009.0
20260506150243 0 194 0.9 0.9 0.00 0.00 0.00 1008.8
20260506145740 0 213 1.7 1.7 0.00 0.00 0.00 1008.8
20260506145236 0 211 2.6 2.6 0.00 0.00 0.00 1009.0
20260506144734 0 210 1.7 1.7 0.00 0.00 0.00 1008.8
20260506144231 0 121 0.9 0.9 0.00 0.00 0.00 1008.8
20260506143728 0 193 0.9 2.6 0.00 0.00 0.00 1009.0
20260506143225 0 223 1.7 2.6 0.00 0.00 0.00 1008.7
20260506142724 0 204 2.6 2.6 0.00 0.00 0.00 1009.0
20260506142221 0 187 0.9 1.7 0.00 0.00 0.00 1008.8
20260506141719 0 272 2.6 4.3 0.00 0.00 0.00 1009.0
20260506141217 0 98 1.7 1.7 0.00 0.00 0.00 1009.1
20260506140715 0 14 0.9 1.7 0.00 0.00 0.00 1009.0
20260506140212 0 227 1.7 1.7 0.00 0.00 0.00 1008.9
20260506135708 0 206 2.6 4.3 0.00 0.00 0.00 1009.0
20260506135205 0 241 2.6 2.6 0.00 0.00 0.00 1008.9
20260506134701 0 215 2.6 2.6 0.00 0.00 0.00 1008.9
20260506134157 0 204 1.7 1.7 0.00 0.00 0.00 1008.6
20260506133655 0 225 0.0 0.9 0.00 0.00 0.00 1008.8
20260506133151 0 175 1.7 2.6 0.00 0.00 0.00 1008.6
20260506132649 0 184 2.6 2.6 0.00 0.00 0.00 1008.7
20260506132145 0 313 0.0 0.9 0.00 0.00 0.00 1008.4
20260506131643 0 200 3.5 5.2 0.00 0.00 0.00 1008.8
20260506131139 0 192 1.7 2.6 0.00 0.00 0.00 1008.6
20260506130636 0 182 2.6 2.6 0.00 0.00 0.00 1008.6
20260506130134 0 272 2.6 4.3 0.00 0.00 0.00 1008.7
20260506125632 0 171 2.6 4.3 0.00 0.00 0.00 1008.5
20260506125129 0 256 0.9 0.9 0.00 0.00 0.00 1008.7
20260506124627 0 200 2.6 2.6 0.00 0.00 0.00 1008.6
20260506124125 0 221 0.0 0.9 0.00 0.00 0.00 1008.8
20260506123622 0 175 1.7 2.6 0.00 0.00 0.00 1008.9
20260506123121 0 215 1.7 2.6 0.00 0.00 0.00 1008.7
20260506122617 0 204 1.7 2.6 0.00 0.00 0.00 1008.8
20260506122115 0 227 0.9 0.9 0.00 0.00 0.00 1008.8
20260506121612 0 233 2.6 4.3 0.00 0.00 0.00 1008.7
20260506121108 0 239 1.7 1.7 0.00 0.00 0.00 1008.9
20260506120606 0 202 2.6 2.6 0.00 0.00 0.00 1009.0
20260506120103 0 122 0.9 1.7 0.00 0.00 0.00 1008.7
20260506115602 0 263 1.7 2.6 0.00 0.00 0.00 1008.7
20260506115059 0 173 3.5 4.3 0.00 0.00 0.00 1008.9
20260506114556 0 207 4.3 6.1 0.00 0.00 0.00 1008.7
20260506114055 0 185 3.5 6.1 0.00 0.00 0.00 1008.6
20260506113552 0 232 0.9 2.6 0.00 0.00 0.00 1008.6
20260506113049 0 230 2.6 2.6 0.00 0.00 0.00 1008.7
20260506112546 0 175 2.6 5.2 0.00 0.00 0.00 1008.6
20260506112043 0 181 2.6 4.3 0.00 0.00 0.00 1008.5
20260506111541 0 189 3.5 5.2 0.00 0.00 0.00 1008.6
20260506111038 0 204 2.6 2.6 0.00 0.00 0.00 1008.6
20260506110536 0 199 3.5 5.2 0.00 0.00 0.00 1008.4
20260506110033 0 212 2.6 2.6 0.00 0.00 0.00 1008.5
20260506105529 0 178 2.6 5.2 0.00 0.00 0.00 1008.4
20260506105026 0 247 1.7 1.7 0.00 0.00 0.00 1008.7
20260506104524 0 194 1.7 2.6 0.00 0.00 0.00 1008.5
20260506104022 0 211 0.9 1.7 0.00 0.00 0.00 1008.4
20260506103519 0 192 1.7 1.7 0.00 0.00 0.00 1008.6
20260506103015 0 199 1.7 1.7 0.00 0.00 0.00 1008.5
20260506102514 0 228 2.6 2.6 0.00 0.00 0.00 1008.3
20260506102011 0 215 2.6 4.3 0.00 0.00 0.00 1008.5
20260506101507 0 206 2.6 2.6 0.00 0.00 0.00 1008.4
20260506101005 0 207 2.6 2.6 0.00 0.00 0.00 1008.5
20260506100503 0 198 2.6 2.6 0.00 0.00 0.00 1008.6
20260506100001 0 225 2.6 4.3 0.00 0.00 0.00 1008.5
20260506095459 0 227 1.7 1.7 0.00 0.00 0.00 1008.7
20260506094955 0 202 1.7 1.7 0.00 0.00 0.00 1008.4
20260506094453 0 205 2.6 2.6 0.00 0.00 0.00 1008.3
20260506093950 0 212 1.7 2.6 0.00 0.00 0.00 1008.4
20260506093449 0 218 0.0 0.0 0.00 0.00 0.00 1008.5
20260506092946 0 221 4.3 5.2 0.00 0.00 0.00 1008.3
20260506092444 0 182 2.6 2.6 0.00 0.00 0.00 1008.5
20260506091940 0 201 2.6 2.6 0.00 0.00 0.00 1008.5
20260506091438 0 198 1.7 1.7 0.00 0.00 0.00 1008.3
20260506090935 0 189 0.9 0.9 0.00 0.00 0.00 1008.6
20260506090433 0 176 1.7 1.7 0.00 0.00 0.00 1008.5
20260506085929 0 220 3.5 4.3 0.00 0.00 0.00 1008.7
20260506085426 0 228 1.7 2.6 0.00 0.00 0.00 1008.4
20260506084922 0 205 2.6 4.3 0.00 0.00 0.00 1008.3
20260506084420 0 189 2.6 4.3 0.00 0.00 0.00 1008.4
20260506083915 0 202 0.9 0.9 0.00 0.00 0.00 1008.4
20260506083413 0 216 1.7 1.7 0.00 0.00 0.00 1008.4
20260506082911 0 176 2.6 4.3 0.00 0.00 0.00 1008.3
20260506082408 0 210 3.5 4.3 0.00 0.00 0.00 1008.5
20260506081903 0 194 2.6 2.6 0.00 0.00 0.00 1008.5
20260506081402 0 204 1.7 1.7 0.00 0.00 0.00 1008.3
20260506080858 0 228 1.7 2.6 0.00 0.00 0.00 1008.5
20260506080355 0 185 1.7 1.7 0.00 0.00 0.00 1008.6
20260506073339 0 217 2.6 2.6 0.00 0.00 0.00 1008.9
20260506072836 0 213 2.6 2.6 0.00 0.00 0.00 1008.7
20260506072334 0 79 2.6 4.3 0.00 0.00 0.00 1008.9
20260506071831 0 234 1.7 1.7 0.00 0.00 0.00 1008.7
20260506071329 0 201 2.6 4.3 0.00 0.00 0.00 1008.8
20260506070826 0 192 2.6 2.6 0.00 0.00 0.00 1009.0